RPC8188 VGHS-RPLL

Flight info

Callsign RPC8188
Flight time 4h 12m
Altitude 37000
Route ADMIL1D/14 ADMIL G463 CTG A599 LINSO/K0850S1130 A599 TAVAB/K0848S1190 A599 POU/N0459F390 DCT DALOL V642 NOMAN A461 AVMUP W16 TADEL TADEL3R/06
Aircraft A343/H-SDE2E3FGHIJ4J5M1RWXY/LB1D1

Departure

Time 2026-03-26 10:43
Airport Hazrat Shahjalal International Airport (VGHS)

Arrival

Time 2026-03-26 14:55
Airport Ninoy Aquino International Airport (RPLL)
Time Latitude Longitude Altitude Speed Heading
2026-03-26 10:07 23.85078 90.39973 40 ft 0 kts 234°
2026-03-26 10:28 23.85079 90.39974 40 ft 1 kts 234°
2026-03-26 10:28 23.85089 90.39988 40 ft 3 kts 234°
2026-03-26 10:28 23.85099 90.40004 36 ft 3 kts 233°
2026-03-26 10:29 23.85109 90.40019 37 ft 2 kts 234°
2026-03-26 10:29 23.85118 90.40036 39 ft 3 kts 262°
2026-03-26 10:29 23.85116 90.40053 34 ft 3 kts 313°
2026-03-26 10:29 23.85101 90.40066 37 ft 3 kts 326°
2026-03-26 10:30 23.85093 90.40072 37 ft 1 kts 324°
2026-03-26 10:30 23.85092 90.40073 37 ft 0 kts 324°
2026-03-26 10:33 23.85094 90.40071 37 ft 0 kts 321°
2026-03-26 10:33 23.85100 90.40067 37 ft 3 kts 323°
2026-03-26 10:33 23.85131 90.40042 38 ft 8 kts 323°
2026-03-26 10:34 23.85150 90.40027 40 ft 1 kts 323°
2026-03-26 10:34 23.85157 90.40021 40 ft 3 kts 323°
2026-03-26 10:34 23.85158 90.40020 40 ft 0 kts 323°
2026-03-26 10:35 23.85164 90.40015 40 ft 2 kts 323°
2026-03-26 10:35 23.85175 90.39999 40 ft 6 kts 305°
2026-03-26 10:35 23.85164 90.39956 39 ft 6 kts 233°
2026-03-26 10:35 23.85145 90.39929 40 ft 0 kts 233°
2026-03-26 10:36 23.85140 90.39922 40 ft 3 kts 233°
2026-03-26 10:36 23.85139 90.39921 40 ft 0 kts 233°
2026-03-26 10:37 23.85138 90.39918 40 ft 2 kts 233°
2026-03-26 10:37 23.85128 90.39904 40 ft 3 kts 233°
2026-03-26 10:38 23.85105 90.39865 40 ft 8 kts 251°
2026-03-26 10:38 23.85119 90.39827 39 ft 6 kts 319°
2026-03-26 10:38 23.85176 90.39778 40 ft 15 kts 321°
2026-03-26 10:38 23.85282 90.39691 40 ft 23 kts 323°
2026-03-26 10:39 23.85411 90.39588 40 ft 23 kts 323°
2026-03-26 10:39 23.85538 90.39489 39 ft 22 kts 325°
2026-03-26 10:39 23.85660 90.39393 40 ft 21 kts 324°
2026-03-26 10:39 23.85767 90.39298 40 ft 11 kts 298°
2026-03-26 10:40 23.85753 90.39247 38 ft 8 kts 232°
2026-03-26 10:40 23.85710 90.39186 40 ft 12 kts 233°
2026-03-26 10:40 23.85660 90.39111 40 ft 13 kts 234°
2026-03-26 10:40 23.85607 90.39031 40 ft 13 kts 234°
2026-03-26 10:41 23.85547 90.38941 39 ft 16 kts 233°
2026-03-26 10:41 23.85463 90.38887 39 ft 15 kts 161°
2026-03-26 10:41 23.85419 90.38919 39 ft 0 kts 143°
2026-03-26 10:42 23.85322 90.38998 39 ft 49 kts 143°
2026-03-26 10:42 23.84838 90.39378 42 ft 119 kts 144°
2026-03-26 10:43 23.83176 90.40799 974 ft 152 kts 140°
2026-03-26 10:43 23.82319 90.41519 1494 ft 167 kts 147°
2026-03-26 10:43 23.81308 90.42270 1723 ft 184 kts 147°
2026-03-26 10:43 23.80204 90.43104 1899 ft 203 kts 146°
2026-03-26 10:44 23.78974 90.44050 2069 ft 230 kts 146°
2026-03-26 10:44 23.77606 90.45122 2382 ft 252 kts 146°
2026-03-26 10:44 23.76151 90.46274 2845 ft 265 kts 145°
2026-03-26 10:44 23.74643 90.47469 3445 ft 271 kts 146°
2026-03-26 10:45 23.73115 90.48677 4183 ft 272 kts 145°
2026-03-26 10:45 23.71572 90.49900 4803 ft 277 kts 145°
2026-03-26 10:45 23.69997 90.51145 5450 ft 281 kts 145°
2026-03-26 10:45 23.68369 90.52351 6099 ft 285 kts 153°
2026-03-26 10:46 23.66554 90.53243 6711 ft 288 kts 160°
2026-03-26 10:46 23.64672 90.54024 7366 ft 290 kts 161°
2026-03-26 10:46 23.62777 90.54799 8042 ft 292 kts 162°
2026-03-26 10:46 23.60869 90.55582 8697 ft 294 kts 162°
2026-03-26 10:47 23.58971 90.56366 9325 ft 297 kts 162°
2026-03-26 10:47 23.57028 90.57170 9942 ft 300 kts 162°
2026-03-26 10:47 23.55043 90.57990 10275 ft 313 kts 162°
2026-03-26 10:47 23.52956 90.58852 10535 ft 328 kts 162°
2026-03-26 10:48 23.50783 90.59751 10791 ft 341 kts 162°
2026-03-26 10:48 23.48519 90.60689 11037 ft 354 kts 162°
2026-03-26 10:48 23.46177 90.61660 11294 ft 365 kts 162°
2026-03-26 10:48 23.43785 90.62652 11711 ft 371 kts 161°
2026-03-26 10:49 23.41361 90.63659 12171 ft 375 kts 161°
2026-03-26 10:49 23.38986 90.64893 12614 ft 382 kts 151°
2026-03-26 10:49 23.36756 90.66489 13094 ft 386 kts 147°
2026-03-26 10:49 23.34546 90.68169 13510 ft 388 kts 147°
2026-03-26 10:50 23.32324 90.69862 13912 ft 393 kts 147°
2026-03-26 10:50 23.30078 90.71568 14461 ft 395 kts 147°
2026-03-26 10:50 23.27812 90.73284 14993 ft 398 kts 147°
2026-03-26 10:50 23.25529 90.75010 15551 ft 401 kts 148°
2026-03-26 10:51 23.23266 90.76817 16097 ft 407 kts 142°
2026-03-26 10:51 23.21318 90.79073 16624 ft 414 kts 127°
2026-03-26 10:51 23.19960 90.81855 17169 ft 421 kts 110°
2026-03-26 10:51 23.19307 90.84969 17711 ft 426 kts 97°
2026-03-26 10:52 23.18998 90.88182 18212 ft 430 kts 96°
2026-03-26 10:52 23.18975 90.88454 18254 ft 430 kts 96°
2026-03-26 10:52 23.18924 90.89071 18331 ft 431 kts 95°
2026-03-26 10:55 23.18865 90.89812 19050 ft 431 kts 95°
2026-03-26 10:56 23.18587 90.93036 19015 ft 430 kts 97°
2026-03-26 10:56 23.18537 90.93479 19052 ft 431 kts 98°
2026-03-26 10:56 23.18405 90.94399 19114 ft 434 kts 101°
2026-03-26 10:56 23.17098 90.98555 19535 ft 438 kts 120°
2026-03-26 10:57 23.16031 91.00410 19832 ft 435 kts 129°
2026-03-26 10:57 23.14018 91.02844 20210 ft 434 kts 139°
2026-03-26 10:57 23.13487 91.03395 20310 ft 435 kts 140°
2026-03-26 10:58 23.11457 91.05367 20728 ft 436 kts 143°
2026-03-26 10:58 23.09125 91.07483 21191 ft 438 kts 144°
2026-03-26 10:58 23.06756 91.09575 21649 ft 440 kts 144°
2026-03-26 10:59 23.04372 91.11675 22093 ft 443 kts 144°
2026-03-26 10:59 23.01983 91.13798 22545 ft 446 kts 144°
2026-03-26 10:59 22.99592 91.15946 22904 ft 446 kts 144°
2026-03-26 10:59 22.97202 91.18110 23260 ft 450 kts 144°
2026-03-26 11:00 22.94795 91.20298 23636 ft 453 kts 144°
2026-03-26 11:00 22.92376 91.22502 23968 ft 456 kts 144°
2026-03-26 11:00 22.89941 91.24721 24305 ft 459 kts 144°
2026-03-26 11:00 22.87491 91.26954 24651 ft 461 kts 144°
2026-03-26 11:01 22.85026 91.29199 24978 ft 464 kts 144°
2026-03-26 11:01 22.82585 91.31426 25306 ft 466 kts 144°
2026-03-26 11:01 22.80060 91.33721 25633 ft 469 kts 144°
2026-03-26 11:01 22.77553 91.35996 25917 ft 471 kts 144°
2026-03-26 11:02 22.75070 91.38248 26256 ft 472 kts 144°
2026-03-26 11:02 22.72514 91.40567 26574 ft 474 kts 144°
2026-03-26 11:02 22.70020 91.42925 26850 ft 479 kts 140°
2026-03-26 11:02 22.67816 91.45671 27140 ft 488 kts 129°
2026-03-26 11:03 22.66110 91.48877 27429 ft 497 kts 116°
2026-03-26 11:03 22.64936 91.52418 27728 ft 502 kts 109°
2026-03-26 11:03 22.64019 91.56078 27984 ft 506 kts 106°
2026-03-26 11:03 22.63233 91.59803 28263 ft 509 kts 104°
2026-03-26 11:04 22.62493 91.63558 28510 ft 511 kts 104°
2026-03-26 11:04 22.61754 91.67323 28750 ft 513 kts 104°
2026-03-26 11:04 22.60994 91.71107 29016 ft 516 kts 105°
2026-03-26 11:04 22.60221 91.74852 29251 ft 518 kts 105°
2026-03-26 11:05 22.59417 91.78662 29557 ft 520 kts 105°
2026-03-26 11:05 22.58602 91.82474 29812 ft 522 kts 105°
2026-03-26 11:05 22.57776 91.86304 30031 ft 524 kts 106°
2026-03-26 11:05 22.56945 91.90148 30139 ft 526 kts 106°
2026-03-26 11:06 22.56107 91.94012 30277 ft 529 kts 106°
2026-03-26 11:06 22.55265 91.97898 30459 ft 532 kts 106°
2026-03-26 11:06 22.54419 92.01804 30635 ft 534 kts 106°
2026-03-26 11:06 22.53571 92.05717 30883 ft 535 kts 106°
2026-03-26 11:07 22.52721 92.09635 31123 ft 536 kts 106°
2026-03-26 11:07 22.51867 92.13568 31337 ft 537 kts 107°
2026-03-26 11:07 22.51013 92.17504 31595 ft 538 kts 107°
2026-03-26 11:07 22.50156 92.21443 31825 ft 539 kts 107°
2026-03-26 11:08 22.49296 92.25385 32017 ft 540 kts 107°
2026-03-26 11:08 22.48433 92.29344 32242 ft 541 kts 107°
2026-03-26 11:08 22.47565 92.33312 32407 ft 543 kts 107°
2026-03-26 11:08 22.46695 92.37289 32620 ft 544 kts 107°
2026-03-26 11:09 22.45822 92.41270 32833 ft 545 kts 107°
2026-03-26 11:09 22.44947 92.45255 33047 ft 545 kts 108°
2026-03-26 11:09 22.44069 92.49250 33255 ft 546 kts 108°
2026-03-26 11:09 22.43190 92.53247 33439 ft 547 kts 108°
2026-03-26 11:10 22.42308 92.57253 33658 ft 548 kts 108°
2026-03-26 11:10 22.41426 92.61255 33868 ft 549 kts 108°
2026-03-26 11:10 22.40540 92.65270 34040 ft 549 kts 108°
2026-03-26 11:10 22.39656 92.69281 34309 ft 547 kts 108°
2026-03-26 11:11 22.38978 92.73329 34659 ft 549 kts 99°
2026-03-26 11:11 22.38906 92.77454 34989 ft 551 kts 88°
2026-03-26 11:11 22.39316 92.81585 35141 ft 554 kts 81°
2026-03-26 11:11 22.39965 92.85689 35310 ft 555 kts 81°
2026-03-26 11:12 22.40648 92.89786 35577 ft 554 kts 81°
2026-03-26 11:12 22.41350 92.93826 35827 ft 554 kts 81°
2026-03-26 11:12 22.42079 92.97915 36103 ft 553 kts 80°
2026-03-26 11:12 22.42809 93.01977 36362 ft 550 kts 81°
2026-03-26 11:13 22.43543 93.06044 36532 ft 552 kts 80°
2026-03-26 11:13 22.44279 93.10114 36707 ft 552 kts 80°
2026-03-26 11:13 22.45014 93.14183 36896 ft 553 kts 80°
2026-03-26 11:13 22.45749 93.18269 36947 ft 554 kts 80°
2026-03-26 11:14 22.47204 93.26421 36963 ft 550 kts 80°
2026-03-26 11:14 22.48655 93.34535 36963 ft 549 kts 81°
2026-03-26 11:15 22.50098 93.42656 36968 ft 550 kts 81°
2026-03-26 11:15 22.51537 93.50782 36970 ft 550 kts 80°
2026-03-26 11:16 22.52967 93.58895 36928 ft 549 kts 81°
2026-03-26 11:16 22.54398 93.67014 36941 ft 550 kts 81°
2026-03-26 11:17 22.55827 93.75127 36936 ft 548 kts 81°
2026-03-26 11:17 22.57249 93.83238 36905 ft 549 kts 81°
2026-03-26 11:18 22.58662 93.91334 36899 ft 547 kts 81°
2026-03-26 11:18 22.60071 93.99455 36865 ft 552 kts 81°
2026-03-26 11:19 22.61493 94.07671 36866 ft 559 kts 81°
2026-03-26 11:19 22.62929 94.15984 36845 ft 565 kts 81°
2026-03-26 11:20 22.64367 94.24331 36840 ft 569 kts 81°
2026-03-26 11:20 22.65817 94.32789 36846 ft 569 kts 81°
2026-03-26 11:21 22.67251 94.41159 36832 ft 568 kts 81°
2026-03-26 11:21 22.68684 94.49537 36831 ft 558 kts 81°
2026-03-26 11:22 22.70072 94.57674 36833 ft 545 kts 81°
2026-03-26 11:22 22.71442 94.65767 36830 ft 547 kts 81°
2026-03-26 11:23 22.72813 94.73897 36822 ft 550 kts 81°
2026-03-26 11:23 22.73495 94.77944 36821 ft 550 kts 81°
2026-03-26 11:24 22.74087 94.81461 36820 ft 550 kts 81°
2026-03-26 11:25 22.75458 94.89617 36824 ft 550 kts 81°
2026-03-26 11:25 22.76824 94.97777 36817 ft 550 kts 81°
2026-03-26 11:26 22.78185 95.05931 36823 ft 550 kts 81°
2026-03-26 11:26 22.79542 95.14094 36823 ft 550 kts 81°
2026-03-26 11:27 22.80550 95.20169 36820 ft 550 kts 81°
2026-03-26 11:28 22.81102 95.23500 36821 ft 551 kts 81°
2026-03-26 11:28 22.81424 95.25450 36823 ft 552 kts 81°
2026-03-26 11:29 22.82569 95.32379 36822 ft 552 kts 81°
2026-03-26 11:29 22.83915 95.40558 36819 ft 550 kts 81°
2026-03-26 11:30 22.85252 95.48715 36821 ft 550 kts 81°
2026-03-26 11:30 22.86585 95.56871 36820 ft 550 kts 81°
2026-03-26 11:31 22.87915 95.65033 36826 ft 550 kts 81°
2026-03-26 11:31 22.89241 95.73195 36823 ft 549 kts 81°
2026-03-26 11:32 22.90561 95.81352 36833 ft 549 kts 81°
2026-03-26 11:32 22.91877 95.89511 36831 ft 549 kts 81°
2026-03-26 11:33 22.93189 95.97672 36840 ft 549 kts 81°
2026-03-26 11:33 22.94497 96.05836 36841 ft 549 kts 81°
2026-03-26 11:34 22.95800 96.13996 36858 ft 549 kts 81°
2026-03-26 11:34 22.97098 96.22149 36854 ft 547 kts 82°
2026-03-26 11:35 22.98388 96.30287 36883 ft 548 kts 81°
2026-03-26 11:35 22.99680 96.38452 36869 ft 551 kts 81°
2026-03-26 11:36 23.00973 96.46657 36876 ft 551 kts 81°
2026-03-26 11:36 23.02250 96.54788 36890 ft 549 kts 81°
2026-03-26 11:37 23.03529 96.62965 36889 ft 549 kts 81°
2026-03-26 11:37 23.04806 96.71157 36904 ft 551 kts 81°
2026-03-26 11:38 23.06080 96.79358 36903 ft 550 kts 81°
2026-03-26 11:38 23.07349 96.87554 36911 ft 550 kts 81°
2026-03-26 11:39 23.08613 96.95747 36901 ft 550 kts 82°
2026-03-26 11:39 23.09868 97.03941 36920 ft 550 kts 82°
2026-03-26 11:40 23.11119 97.12130 36920 ft 550 kts 82°
2026-03-26 11:40 23.12375 97.20326 36918 ft 550 kts 81°
2026-03-26 11:41 23.13623 97.28521 36915 ft 550 kts 82°
2026-03-26 11:41 23.14868 97.36730 36903 ft 551 kts 82°
2026-03-26 11:42 23.16107 97.44943 36896 ft 550 kts 82°
2026-03-26 11:42 23.17341 97.53146 36899 ft 550 kts 82°
2026-03-26 11:43 23.18570 97.61348 36899 ft 550 kts 82°
2026-03-26 11:43 23.19796 97.69552 36901 ft 550 kts 82°
2026-03-26 11:44 23.20998 97.77634 36889 ft 550 kts 82°
2026-03-26 11:44 23.22214 97.85831 36893 ft 550 kts 82°
2026-03-26 11:45 23.23222 97.92653 36913 ft 550 kts 82°
2026-03-26 11:45 23.24437 98.00897 36979 ft 554 kts 82°
2026-03-26 11:46 23.25653 98.09188 37006 ft 554 kts 82°
2026-03-26 11:46 23.26858 98.17432 37002 ft 552 kts 82°
2026-03-26 11:47 23.28056 98.25668 37015 ft 551 kts 82°
2026-03-26 11:47 23.29252 98.33908 37011 ft 551 kts 82°
2026-03-26 11:48 23.30444 98.42151 37003 ft 551 kts 82°
2026-03-26 11:48 23.31633 98.50391 36992 ft 551 kts 82°
2026-03-26 11:49 23.32814 98.58634 36990 ft 551 kts 82°
2026-03-26 11:49 23.33988 98.66860 36984 ft 550 kts 82°
2026-03-26 11:50 23.35161 98.75105 36985 ft 552 kts 82°
2026-03-26 11:50 23.36329 98.83353 36994 ft 550 kts 82°
2026-03-26 11:51 23.37636 98.91540 36989 ft 549 kts 74°
2026-03-26 11:51 23.39906 98.99473 37003 ft 549 kts 70°
2026-03-26 11:52 23.42357 99.07297 37017 ft 549 kts 70°
2026-03-26 11:52 23.44843 99.15158 37010 ft 550 kts 70°
2026-03-26 11:53 23.47319 99.23050 37008 ft 551 kts 70°
2026-03-26 11:53 23.49780 99.30964 37024 ft 552 kts 70°
2026-03-26 11:54 23.52266 99.38881 37023 ft 553 kts 66°
2026-03-26 11:54 23.55699 99.46342 37021 ft 550 kts 58°
2026-03-26 11:55 23.59454 99.53598 37027 ft 549 kts 57°
2026-03-26 11:55 23.63259 99.60821 37028 ft 549 kts 57°
2026-03-26 11:56 23.67050 99.68071 37029 ft 551 kts 57°
2026-03-26 11:56 23.70832 99.75334 37042 ft 551 kts 57°
2026-03-26 11:57 23.74608 99.82600 37038 ft 550 kts 57°
2026-03-26 11:57 23.78376 99.89868 37033 ft 549 kts 57°
2026-03-26 11:58 23.82143 99.97137 37033 ft 550 kts 57°
2026-03-26 11:58 23.85909 100.04413 37019 ft 550 kts 57°
2026-03-26 11:59 23.89670 100.11696 37041 ft 550 kts 57°
2026-03-26 11:59 23.93427 100.18989 37038 ft 550 kts 57°
2026-03-26 12:00 23.97179 100.26277 37047 ft 550 kts 57°
2026-03-26 12:00 24.00923 100.33569 37045 ft 550 kts 57°
2026-03-26 12:01 24.04659 100.40862 37050 ft 548 kts 57°
2026-03-26 12:01 24.08372 100.48104 37045 ft 551 kts 57°
2026-03-26 12:02 24.12125 100.55422 37045 ft 552 kts 57°
2026-03-26 12:02 24.15858 100.62764 37047 ft 553 kts 58°
2026-03-26 12:03 24.19542 100.70153 37048 ft 554 kts 58°
2026-03-26 12:03 24.23224 100.77559 37040 ft 553 kts 58°
2026-03-26 12:04 24.26916 100.84956 37053 ft 552 kts 58°
2026-03-26 12:04 24.30600 100.92342 37064 ft 552 kts 58°
2026-03-26 12:05 24.34278 100.99717 37067 ft 551 kts 58°
2026-03-26 12:05 24.37952 101.07097 37058 ft 551 kts 58°
2026-03-26 12:06 24.41620 101.14480 37057 ft 551 kts 58°
2026-03-26 12:06 24.45284 101.21869 37079 ft 551 kts 58°
2026-03-26 12:07 24.48933 101.29255 37064 ft 550 kts 58°
2026-03-26 12:07 24.52594 101.36649 37083 ft 552 kts 58°
2026-03-26 12:08 24.56257 101.44072 37077 ft 553 kts 58°
2026-03-26 12:08 24.59923 101.51503 37082 ft 554 kts 58°
2026-03-26 12:09 24.63587 101.58953 37073 ft 554 kts 58°
2026-03-26 12:09 24.67203 101.66419 37074 ft 553 kts 58°
2026-03-26 12:10 24.70782 101.73852 37076 ft 554 kts 58°
2026-03-26 12:10 24.74415 101.81398 37087 ft 555 kts 58°
2026-03-26 12:11 24.78001 101.88849 37088 ft 555 kts 58°
2026-03-26 12:11 24.81608 101.96352 37092 ft 554 kts 58°
2026-03-26 12:12 24.85212 102.03859 37096 ft 554 kts 58°
2026-03-26 12:12 24.88806 102.11360 37107 ft 553 kts 58°
2026-03-26 12:13 24.92397 102.18866 37113 ft 553 kts 59°
2026-03-26 12:13 24.95978 102.26364 37126 ft 553 kts 59°
2026-03-26 12:14 24.99556 102.33869 37138 ft 553 kts 59°
2026-03-26 12:14 25.03133 102.41385 37146 ft 554 kts 58°
2026-03-26 12:15 25.04687 102.45285 37140 ft 558 kts 69°
2026-03-26 12:15 25.05624 102.49442 37146 ft 559 kts 82°
2026-03-26 12:15 25.05808 102.53710 37150 ft 557 kts 96°
2026-03-26 12:15 25.05199 102.57895 37155 ft 550 kts 110°
2026-03-26 12:16 25.02315 102.65617 37172 ft 544 kts 121°
2026-03-26 12:16 24.98953 102.73086 37179 ft 544 kts 122°
2026-03-26 12:17 24.95582 102.80483 37181 ft 544 kts 122°
2026-03-26 12:17 24.92222 102.87961 37182 ft 545 kts 122°
2026-03-26 12:18 24.88917 102.95476 37169 ft 545 kts 121°
2026-03-26 12:18 24.85639 103.03003 37159 ft 545 kts 121°
2026-03-26 12:19 24.82356 103.10522 37136 ft 545 kts 121°
2026-03-26 12:19 24.79062 103.18036 37124 ft 545 kts 121°
2026-03-26 12:20 24.75758 103.25545 37109 ft 545 kts 121°
2026-03-26 12:20 24.72447 103.33054 37110 ft 545 kts 121°
2026-03-26 12:21 24.69136 103.40558 37105 ft 545 kts 121°
2026-03-26 12:21 24.65821 103.48056 37101 ft 545 kts 121°
2026-03-26 12:22 24.62504 103.55551 37094 ft 545 kts 121°
2026-03-26 12:22 24.59189 103.63025 37092 ft 544 kts 121°
2026-03-26 12:23 24.55871 103.70493 37065 ft 544 kts 121°
2026-03-26 12:23 24.53321 103.78380 37064 ft 552 kts 108°
2026-03-26 12:24 24.51491 103.86570 37070 ft 553 kts 106°
2026-03-26 12:24 24.49771 103.94825 37033 ft 555 kts 106°
2026-03-26 12:25 24.48037 104.03091 37036 ft 556 kts 106°
2026-03-26 12:25 24.46290 104.11292 37012 ft 556 kts 107°
2026-03-26 12:26 24.44517 104.19546 37008 ft 555 kts 107°
2026-03-26 12:26 24.42740 104.27792 36983 ft 555 kts 107°
2026-03-26 12:27 24.40958 104.36040 36960 ft 556 kts 107°
2026-03-26 12:27 24.39175 104.44282 36955 ft 555 kts 107°
2026-03-26 12:28 24.37383 104.52522 36936 ft 555 kts 107°
2026-03-26 12:28 24.35584 104.60763 36935 ft 555 kts 107°
2026-03-26 12:29 24.33787 104.68999 36910 ft 555 kts 107°
2026-03-26 12:29 24.31975 104.77216 36916 ft 555 kts 107°
2026-03-26 12:30 24.30170 104.85453 36919 ft 555 kts 107°
2026-03-26 12:30 24.28365 104.93679 36889 ft 555 kts 107°
2026-03-26 12:31 24.26551 105.01899 36901 ft 554 kts 107°
2026-03-26 12:31 24.24740 105.10077 36896 ft 550 kts 107°
2026-03-26 12:32 24.22932 105.18207 36896 ft 549 kts 107°
2026-03-26 12:32 24.21415 105.24965 36903 ft 549 kts 108°
2026-03-26 12:33 24.19467 105.33047 36900 ft 548 kts 109°
2026-03-26 12:33 24.17483 105.41097 36895 ft 547 kts 109°
2026-03-26 12:34 24.15514 105.49131 36896 ft 546 kts 109°
2026-03-26 12:34 24.13555 105.57164 36885 ft 546 kts 109°
2026-03-26 12:35 24.11591 105.65210 36875 ft 547 kts 109°
2026-03-26 12:35 24.09652 105.73251 36891 ft 546 kts 107°
2026-03-26 12:36 24.08030 105.81377 36877 ft 546 kts 104°
2026-03-26 12:36 24.06499 105.89525 36885 ft 548 kts 105°
2026-03-26 12:37 24.04928 105.97625 36878 ft 548 kts 105°
2026-03-26 12:37 24.03312 106.05773 36882 ft 548 kts 105°
2026-03-26 12:38 24.01681 106.13928 36879 ft 549 kts 105°
2026-03-26 12:38 24.00059 106.22080 36877 ft 549 kts 105°
2026-03-26 12:39 23.98413 106.30232 36879 ft 549 kts 105°
2026-03-26 12:39 23.96758 106.38384 36881 ft 549 kts 105°
2026-03-26 12:40 23.95106 106.46522 36877 ft 548 kts 105°
2026-03-26 12:40 23.93453 106.54661 36880 ft 549 kts 105°
2026-03-26 12:41 23.92200 106.62901 37052 ft 552 kts 97°
2026-03-26 12:41 23.91860 106.67074 37232 ft 551 kts 96°
2026-03-26 12:41 23.91565 106.71247 37453 ft 551 kts 96°
2026-03-26 12:42 23.91293 106.75423 37572 ft 551 kts 95°
2026-03-26 12:42 23.91029 106.79597 37759 ft 550 kts 96°
2026-03-26 12:42 23.90763 106.83761 37956 ft 549 kts 96°
2026-03-26 12:42 23.90492 106.87923 38161 ft 548 kts 96°
2026-03-26 12:43 23.90217 106.92076 38293 ft 548 kts 96°
2026-03-26 12:43 23.89944 106.96231 38390 ft 548 kts 96°
2026-03-26 12:43 23.89665 107.00385 38547 ft 548 kts 96°
2026-03-26 12:43 23.89381 107.04530 38693 ft 547 kts 96°
2026-03-26 12:44 23.89095 107.08669 38842 ft 546 kts 96°
2026-03-26 12:44 23.88808 107.12810 38889 ft 548 kts 96°
2026-03-26 12:44 23.88233 107.21086 38892 ft 545 kts 96°
2026-03-26 12:45 23.87661 107.29335 38895 ft 545 kts 96°
2026-03-26 12:45 23.87083 107.37582 38897 ft 544 kts 96°
2026-03-26 12:46 23.86495 107.45833 38891 ft 544 kts 96°
2026-03-26 12:46 23.85908 107.54079 38902 ft 545 kts 96°
2026-03-26 12:47 23.85316 107.62326 38898 ft 544 kts 96°
2026-03-26 12:47 23.84721 107.70569 38906 ft 544 kts 96°
2026-03-26 12:48 23.84122 107.78810 38915 ft 544 kts 97°
2026-03-26 12:48 23.83523 107.87041 38912 ft 543 kts 96°
2026-03-26 12:49 23.83080 107.95275 38914 ft 543 kts 95°
2026-03-26 12:49 23.82711 108.03445 38909 ft 543 kts 95°
2026-03-26 12:50 23.82316 108.11683 38918 ft 543 kts 95°
2026-03-26 12:50 23.81895 108.19923 38919 ft 544 kts 95°
2026-03-26 12:51 23.81434 108.28163 38920 ft 543 kts 96°
2026-03-26 12:51 23.80963 108.36390 38919 ft 543 kts 96°
2026-03-26 12:52 23.80489 108.44637 38903 ft 544 kts 96°
2026-03-26 12:52 23.80017 108.52854 38910 ft 541 kts 96°
2026-03-26 12:53 23.79544 108.61042 38915 ft 540 kts 96°
2026-03-26 12:53 23.79066 108.69224 38913 ft 540 kts 96°
2026-03-26 12:54 23.78585 108.77403 38912 ft 540 kts 96°
2026-03-26 12:54 23.78098 108.85590 38914 ft 542 kts 96°
2026-03-26 12:55 23.77358 108.97912 38921 ft 542 kts 96°
2026-03-26 12:56 23.76859 109.06126 38919 ft 543 kts 96°
2026-03-26 12:56 23.76254 109.14330 38920 ft 541 kts 102°
2026-03-26 12:57 23.74817 109.22375 38913 ft 540 kts 105°
2026-03-26 12:57 23.73220 109.30333 38913 ft 540 kts 106°
2026-03-26 12:58 23.71581 109.38331 38910 ft 540 kts 106°
2026-03-26 12:58 23.69950 109.46331 38913 ft 540 kts 105°
2026-03-26 12:59 23.68326 109.54328 38919 ft 539 kts 105°
2026-03-26 12:59 23.66701 109.62319 38923 ft 539 kts 105°
2026-03-26 13:00 23.65067 109.70297 38936 ft 539 kts 106°
2026-03-26 13:00 23.63414 109.78273 38939 ft 539 kts 106°
2026-03-26 13:01 23.61761 109.86239 38948 ft 538 kts 106°
2026-03-26 13:01 23.60112 109.94182 38956 ft 536 kts 106°
2026-03-26 13:02 23.58463 110.02109 38956 ft 536 kts 106°
2026-03-26 13:02 23.56809 110.10034 38960 ft 536 kts 106°
2026-03-26 13:03 23.55150 110.17960 38960 ft 536 kts 106°
2026-03-26 13:03 23.53488 110.25878 38957 ft 536 kts 106°
2026-03-26 13:04 23.51823 110.33795 38956 ft 536 kts 106°
2026-03-26 13:04 23.50174 110.41722 38957 ft 536 kts 105°
2026-03-26 13:05 23.48568 110.49654 38956 ft 537 kts 105°
2026-03-26 13:05 23.46958 110.57606 38955 ft 538 kts 105°
2026-03-26 13:06 23.45340 110.65562 38961 ft 538 kts 105°
2026-03-26 13:06 23.43720 110.73460 38963 ft 538 kts 105°
2026-03-26 13:07 23.42056 110.81399 38968 ft 538 kts 106°
2026-03-26 13:07 23.40370 110.89331 38972 ft 538 kts 106°
2026-03-26 13:08 23.38682 110.97277 38973 ft 539 kts 106°
2026-03-26 13:08 23.36993 111.05226 38976 ft 539 kts 106°
2026-03-26 13:09 23.35305 111.13165 38976 ft 539 kts 106°
2026-03-26 13:09 23.33643 111.21108 38970 ft 537 kts 105°
2026-03-26 13:10 23.32034 111.29034 38985 ft 537 kts 105°
2026-03-26 13:10 23.30420 111.36963 38979 ft 536 kts 105°
2026-03-26 13:11 23.28795 111.44884 38989 ft 536 kts 105°
2026-03-26 13:11 23.27163 111.52800 38986 ft 537 kts 105°
2026-03-26 13:12 23.25510 111.60716 38996 ft 536 kts 106°
2026-03-26 13:12 23.23827 111.68619 38999 ft 536 kts 106°
2026-03-26 13:13 23.22143 111.76516 38988 ft 536 kts 106°
2026-03-26 13:13 23.20462 111.84411 38995 ft 536 kts 105°
2026-03-26 13:14 23.18813 111.92315 39003 ft 536 kts 105°
2026-03-26 13:14 23.17176 112.00223 39004 ft 536 kts 105°
2026-03-26 13:15 23.15532 112.08127 39014 ft 536 kts 105°
2026-03-26 13:15 23.13880 112.16026 39012 ft 536 kts 105°
2026-03-26 13:16 23.12233 112.23869 39023 ft 536 kts 105°
2026-03-26 13:16 23.10571 112.31762 39019 ft 536 kts 105°
2026-03-26 13:17 23.08907 112.39655 39012 ft 536 kts 105°
2026-03-26 13:17 23.07286 112.47564 39017 ft 538 kts 101°
2026-03-26 13:18 23.06506 112.55655 39022 ft 540 kts 96°
2026-03-26 13:18 23.05947 112.63784 39015 ft 540 kts 95°
2026-03-26 13:19 23.05423 112.71924 39019 ft 540 kts 95°
2026-03-26 13:19 23.04882 112.80058 39022 ft 540 kts 95°
2026-03-26 13:20 23.04325 112.88205 39018 ft 542 kts 95°
2026-03-26 13:20 23.03760 112.96353 38929 ft 537 kts 95°
2026-03-26 13:21 23.03199 113.04395 38920 ft 533 kts 95°
2026-03-26 13:21 23.02730 113.11065 38910 ft 533 kts 95°
2026-03-26 13:22 23.00621 113.20046 38920 ft 521 kts 121°
2026-03-26 13:22 22.97349 113.25427 38929 ft 512 kts 133°
2026-03-26 13:23 22.92865 113.31416 38927 ft 511 kts 136°
2026-03-26 13:23 22.87542 113.38269 38925 ft 511 kts 135°
2026-03-26 13:24 22.83725 113.43219 38924 ft 511 kts 135°
2026-03-26 13:24 22.79189 113.49144 38945 ft 511 kts 135°
2026-03-26 13:25 22.74690 113.55031 38935 ft 511 kts 135°
2026-03-26 13:25 22.70156 113.60959 38935 ft 511 kts 135°
2026-03-26 13:26 22.65624 113.66875 38937 ft 511 kts 135°
2026-03-26 13:26 22.61086 113.72791 38949 ft 511 kts 135°
2026-03-26 13:27 22.56546 113.78702 38937 ft 511 kts 135°
2026-03-26 13:27 22.51996 113.84619 38914 ft 511 kts 135°
2026-03-26 13:28 22.47456 113.90519 38960 ft 509 kts 135°
2026-03-26 13:28 22.42929 113.96394 38969 ft 508 kts 135°
2026-03-26 13:29 22.38407 114.02256 38963 ft 508 kts 135°
2026-03-26 13:29 22.33875 114.08125 38968 ft 508 kts 135°
2026-03-26 13:30 22.29341 114.13987 38964 ft 508 kts 135°
2026-03-26 13:30 22.24809 114.19839 38971 ft 508 kts 135°
2026-03-26 13:31 22.20276 114.25689 38965 ft 508 kts 135°
2026-03-26 13:31 22.15742 114.31534 38962 ft 508 kts 135°
2026-03-26 13:32 22.11207 114.37374 38961 ft 507 kts 135°
2026-03-26 13:32 22.06683 114.43193 38963 ft 506 kts 135°
2026-03-26 13:33 22.02159 114.49005 38963 ft 506 kts 135°
2026-03-26 13:33 21.97633 114.54814 38965 ft 506 kts 135°
2026-03-26 13:34 21.93139 114.60574 38966 ft 506 kts 135°
2026-03-26 13:34 21.88609 114.66375 38970 ft 506 kts 135°
2026-03-26 13:35 21.84078 114.72170 38969 ft 506 kts 135°
2026-03-26 13:35 21.79546 114.77961 38971 ft 506 kts 135°
2026-03-26 13:36 21.75012 114.83750 38967 ft 505 kts 135°
2026-03-26 13:36 21.70603 114.89630 38969 ft 506 kts 131°
2026-03-26 13:37 21.66393 114.95690 38969 ft 506 kts 131°
2026-03-26 13:37 21.62182 115.01755 38965 ft 506 kts 131°
2026-03-26 13:38 21.57933 115.07785 38969 ft 506 kts 131°
2026-03-26 13:38 21.53661 115.13791 38972 ft 506 kts 131°
2026-03-26 13:39 21.49391 115.19801 38972 ft 506 kts 131°
2026-03-26 13:39 21.45116 115.25799 38971 ft 506 kts 131°
2026-03-26 13:40 21.40840 115.31793 38974 ft 506 kts 131°
2026-03-26 13:40 21.36566 115.37785 38967 ft 504 kts 131°
2026-03-26 13:41 21.32313 115.43744 38976 ft 502 kts 131°
2026-03-26 13:41 21.28065 115.49688 38972 ft 502 kts 131°
2026-03-26 13:42 21.23817 115.55623 38972 ft 502 kts 131°
2026-03-26 13:42 21.19568 115.61555 38974 ft 502 kts 132°
2026-03-26 13:43 21.15316 115.67485 38971 ft 502 kts 131°
2026-03-26 13:43 21.11063 115.73410 38974 ft 502 kts 132°
2026-03-26 13:44 21.06806 115.79334 38979 ft 503 kts 132°
2026-03-26 13:44 21.02510 115.85304 38975 ft 509 kts 132°
2026-03-26 13:45 20.98187 115.91304 38981 ft 516 kts 131°
2026-03-26 13:45 20.93780 115.97417 38982 ft 522 kts 131°
2026-03-26 13:46 20.89318 116.03601 38982 ft 528 kts 131°
2026-03-26 13:46 20.84570 116.09582 38983 ft 523 kts 143°
2026-03-26 13:47 20.78774 116.14121 38983 ft 514 kts 152°
2026-03-26 13:47 20.72755 116.18230 38985 ft 513 kts 153°
2026-03-26 13:48 20.66696 116.22271 38973 ft 513 kts 153°
2026-03-26 13:48 20.60647 116.26330 38972 ft 513 kts 152°
2026-03-26 13:49 20.54666 116.30368 38976 ft 512 kts 152°
2026-03-26 13:49 20.48657 116.34429 38974 ft 511 kts 152°
2026-03-26 13:50 20.42644 116.38488 38974 ft 511 kts 152°
2026-03-26 13:50 20.36632 116.42542 38974 ft 511 kts 152°
2026-03-26 13:51 20.30616 116.46594 38974 ft 511 kts 152°
2026-03-26 13:51 20.24605 116.50641 38976 ft 510 kts 152°
2026-03-26 13:52 20.18610 116.54672 38977 ft 510 kts 152°
2026-03-26 13:52 20.12616 116.58698 38974 ft 510 kts 152°
2026-03-26 13:53 20.06617 116.62724 38974 ft 509 kts 152°
2026-03-26 13:53 20.00709 116.66895 38970 ft 514 kts 144°
2026-03-26 13:54 19.95574 116.72226 38971 ft 518 kts 137°
2026-03-26 13:54 19.90686 116.77869 38972 ft 519 kts 136°
2026-03-26 13:55 19.85839 116.83552 38970 ft 519 kts 136°
2026-03-26 13:55 19.80974 116.89222 38969 ft 519 kts 136°
2026-03-26 13:56 19.76098 116.94871 38969 ft 519 kts 136°
2026-03-26 13:56 19.71216 117.00513 38973 ft 519 kts 136°
2026-03-26 13:57 19.66330 117.06153 38969 ft 519 kts 136°
2026-03-26 13:57 19.61447 117.11785 38964 ft 519 kts 136°
2026-03-26 13:58 19.54130 117.20218 38965 ft 517 kts 136°
2026-03-26 13:58 19.49259 117.25824 38966 ft 517 kts 136°
2026-03-26 13:59 19.44388 117.31425 38966 ft 517 kts 136°
2026-03-26 13:59 19.39515 117.37022 38966 ft 517 kts 136°
2026-03-26 14:00 19.34672 117.42581 38968 ft 517 kts 136°
2026-03-26 14:00 19.29793 117.48175 38966 ft 517 kts 136°
2026-03-26 14:01 19.24914 117.53764 38966 ft 517 kts 136°
2026-03-26 14:01 19.20033 117.59349 38964 ft 517 kts 136°
2026-03-26 14:02 19.15160 117.64922 38965 ft 515 kts 136°
2026-03-26 14:02 19.10292 117.70483 38963 ft 515 kts 136°
2026-03-26 14:03 19.05419 117.76042 38966 ft 515 kts 136°
2026-03-26 14:03 19.00547 117.81601 38966 ft 515 kts 136°
2026-03-26 14:04 18.95714 117.87189 38955 ft 517 kts 131°
2026-03-26 14:04 18.92056 117.93764 38960 ft 522 kts 117°
2026-03-26 14:05 18.88993 118.00721 38960 ft 523 kts 117°
2026-03-26 14:05 18.85953 118.07691 38957 ft 523 kts 117°
2026-03-26 14:06 18.82924 118.14619 38960 ft 523 kts 117°
2026-03-26 14:06 18.79189 118.21130 38958 ft 516 kts 130°
2026-03-26 14:07 18.74715 118.27031 38955 ft 514 kts 135°
2026-03-26 14:07 18.69617 118.32257 38958 ft 510 kts 141°
2026-03-26 14:08 18.64261 118.37172 38952 ft 510 kts 143°
2026-03-26 14:08 18.58861 118.42024 38957 ft 510 kts 143°
2026-03-26 14:09 18.53476 118.46883 38953 ft 510 kts 142°
2026-03-26 14:09 18.48102 118.51756 38952 ft 510 kts 142°
2026-03-26 14:10 18.42729 118.56633 38951 ft 510 kts 142°
2026-03-26 14:10 18.37356 118.61506 38952 ft 510 kts 142°
2026-03-26 14:11 18.31983 118.66374 38950 ft 510 kts 142°
2026-03-26 14:11 18.27513 118.70419 38949 ft 510 kts 142°
2026-03-26 14:12 18.22134 118.75284 38949 ft 510 kts 142°
2026-03-26 14:12 18.16750 118.80149 38949 ft 510 kts 142°
2026-03-26 14:13 18.11369 118.85007 38947 ft 510 kts 143°
2026-03-26 14:13 18.05980 118.89869 38947 ft 511 kts 143°
2026-03-26 14:14 18.00564 118.94726 38936 ft 511 kts 145°
2026-03-26 14:14 17.94594 118.98648 38944 ft 506 kts 154°
2026-03-26 14:15 17.88445 119.02243 38944 ft 506 kts 155°
2026-03-26 14:15 17.82266 119.05786 38944 ft 506 kts 155°
2026-03-26 14:16 17.76091 119.09339 38933 ft 506 kts 155°
2026-03-26 14:16 17.69936 119.12897 38944 ft 505 kts 155°
2026-03-26 14:17 17.63827 119.16431 38942 ft 504 kts 155°
2026-03-26 14:17 17.57682 119.19983 38941 ft 504 kts 155°
2026-03-26 14:18 17.51535 119.23532 38941 ft 504 kts 155°
2026-03-26 14:18 17.45391 119.27077 38938 ft 505 kts 155°
2026-03-26 14:19 17.39240 119.30622 38941 ft 504 kts 154°
2026-03-26 14:19 17.33098 119.34161 38941 ft 504 kts 154°
2026-03-26 14:20 17.26957 119.37696 38939 ft 504 kts 154°
2026-03-26 14:20 17.20821 119.41225 38938 ft 503 kts 154°
2026-03-26 14:21 17.14682 119.44754 38938 ft 503 kts 155°
2026-03-26 14:21 17.08541 119.48281 38935 ft 503 kts 154°
2026-03-26 14:22 17.02407 119.51802 38939 ft 503 kts 154°
2026-03-26 14:22 16.96273 119.55319 38938 ft 503 kts 154°
2026-03-26 14:23 16.90136 119.58836 38938 ft 504 kts 154°
2026-03-26 14:23 16.83990 119.62355 38938 ft 504 kts 154°
2026-03-26 14:24 16.77845 119.65871 38938 ft 504 kts 154°
2026-03-26 14:24 16.71700 119.69384 38915 ft 503 kts 154°
2026-03-26 14:25 16.68637 119.71134 38762 ft 502 kts 154°
2026-03-26 14:25 16.65574 119.72884 38740 ft 503 kts 154°
2026-03-26 14:25 16.59443 119.76385 38501 ft 499 kts 154°
2026-03-26 14:26 16.56444 119.78097 37869 ft 496 kts 154°
2026-03-26 14:26 16.53436 119.79814 36878 ft 491 kts 154°
2026-03-26 14:26 16.50462 119.81512 36068 ft 482 kts 155°
2026-03-26 14:26 16.47557 119.83172 35438 ft 472 kts 155°
2026-03-26 14:27 16.44669 119.84817 34799 ft 475 kts 155°
2026-03-26 14:27 16.41754 119.86474 34130 ft 479 kts 155°
2026-03-26 14:27 16.38815 119.88142 33382 ft 484 kts 155°
2026-03-26 14:27 16.35848 119.89827 32660 ft 487 kts 155°
2026-03-26 14:28 16.32869 119.91520 31924 ft 490 kts 155°
2026-03-26 14:28 16.29867 119.93226 31183 ft 493 kts 155°
2026-03-26 14:28 16.26850 119.94942 30519 ft 494 kts 155°
2026-03-26 14:28 16.23844 119.96652 30002 ft 491 kts 154°
2026-03-26 14:29 16.20853 119.98355 29411 ft 488 kts 154°
2026-03-26 14:29 16.17883 120.00043 28868 ft 484 kts 154°
2026-03-26 14:29 16.14941 120.01716 28351 ft 480 kts 154°
2026-03-26 14:29 16.12016 120.03377 27818 ft 477 kts 154°
2026-03-26 14:30 16.09115 120.05023 27295 ft 473 kts 154°
2026-03-26 14:30 16.06236 120.06656 26773 ft 470 kts 154°
2026-03-26 14:30 16.03377 120.08276 26249 ft 467 kts 153°
2026-03-26 14:30 16.00534 120.09887 25726 ft 464 kts 153°
2026-03-26 14:31 15.97706 120.11490 25207 ft 461 kts 153°
2026-03-26 14:31 15.94921 120.13068 24686 ft 449 kts 153°
2026-03-26 14:31 15.92217 120.14601 24185 ft 438 kts 153°
2026-03-26 14:31 15.89547 120.16114 23683 ft 436 kts 153°
2026-03-26 14:32 15.86883 120.17621 23136 ft 436 kts 153°
2026-03-26 14:32 15.84228 120.19121 22603 ft 433 kts 153°
2026-03-26 14:32 15.81588 120.20613 22113 ft 430 kts 153°
2026-03-26 14:32 15.78969 120.22093 21617 ft 427 kts 152°
2026-03-26 14:33 15.76367 120.23563 21131 ft 424 kts 152°
2026-03-26 14:33 15.73782 120.25023 20642 ft 422 kts 152°
2026-03-26 14:33 15.71214 120.26474 20158 ft 419 kts 152°
2026-03-26 14:33 15.68659 120.27918 19687 ft 417 kts 152°
2026-03-26 14:34 15.66117 120.29357 19163 ft 416 kts 151°
2026-03-26 14:34 15.63575 120.30794 18587 ft 417 kts 151°
2026-03-26 14:34 15.61033 120.32228 18057 ft 415 kts 151°
2026-03-26 14:34 15.58505 120.33652 17693 ft 408 kts 151°
2026-03-26 14:35 15.56080 120.35018 17564 ft 396 kts 151°
2026-03-26 14:35 15.53698 120.36360 17439 ft 384 kts 151°
2026-03-26 14:35 15.51381 120.37666 17278 ft 374 kts 151°
2026-03-26 14:35 15.49132 120.38936 17107 ft 360 kts 151°
2026-03-26 14:36 15.46999 120.40136 16927 ft 338 kts 151°
2026-03-26 14:36 15.44970 120.41278 16577 ft 330 kts 151°
2026-03-26 14:36 15.42947 120.42418 16236 ft 331 kts 151°
2026-03-26 14:36 15.40861 120.43430 15919 ft 331 kts 159°
2026-03-26 14:37 15.38679 120.44178 15627 ft 330 kts 162°
2026-03-26 14:37 15.36487 120.44870 15334 ft 329 kts 162°
2026-03-26 14:37 15.34304 120.45556 15059 ft 327 kts 162°
2026-03-26 14:37 15.32132 120.46241 14791 ft 325 kts 162°
2026-03-26 14:38 15.29975 120.46923 14583 ft 324 kts 162°
2026-03-26 14:38 15.27819 120.47607 14350 ft 323 kts 161°
2026-03-26 14:38 15.25673 120.48288 14093 ft 322 kts 161°
2026-03-26 14:38 15.23530 120.48968 13820 ft 321 kts 161°
2026-03-26 14:39 15.21399 120.49644 13541 ft 319 kts 161°
2026-03-26 14:39 15.19281 120.50316 13280 ft 318 kts 161°
2026-03-26 14:39 15.17168 120.50986 13042 ft 317 kts 161°
2026-03-26 14:39 15.15062 120.51654 12778 ft 316 kts 161°
2026-03-26 14:40 15.12962 120.52320 12530 ft 315 kts 162°
2026-03-26 14:40 15.10872 120.52983 12303 ft 314 kts 162°
2026-03-26 14:40 15.08790 120.53643 12061 ft 312 kts 161°
2026-03-26 14:40 15.06714 120.54301 11808 ft 312 kts 161°
2026-03-26 14:41 15.04650 120.54955 11556 ft 310 kts 161°
2026-03-26 14:41 15.02590 120.55609 11317 ft 309 kts 161°
2026-03-26 14:41 15.00537 120.56259 11069 ft 308 kts 161°
2026-03-26 14:41 14.98492 120.56907 10830 ft 306 kts 162°
2026-03-26 14:42 14.96459 120.57552 10592 ft 306 kts 162°
2026-03-26 14:42 14.94427 120.58198 10382 ft 304 kts 161°
2026-03-26 14:42 14.92405 120.58842 10156 ft 304 kts 162°
2026-03-26 14:42 14.90385 120.59479 9934 ft 302 kts 162°
2026-03-26 14:43 14.84377 120.61374 9214 ft 300 kts 162°
2026-03-26 14:43 14.82418 120.61993 8973 ft 297 kts 162°
2026-03-26 14:44 14.80439 120.62618 8730 ft 297 kts 162°
2026-03-26 14:44 14.78472 120.63240 8479 ft 295 kts 162°
2026-03-26 14:44 14.76505 120.63861 8230 ft 297 kts 162°
2026-03-26 14:44 14.74524 120.64487 8043 ft 295 kts 162°
2026-03-26 14:45 14.72571 120.65104 7844 ft 292 kts 162°
2026-03-26 14:45 14.70629 120.65717 7551 ft 292 kts 162°
2026-03-26 14:45 14.68697 120.66327 7359 ft 287 kts 162°
2026-03-26 14:45 14.66821 120.66919 7216 ft 275 kts 162°
2026-03-26 14:46 14.65043 120.67480 7030 ft 262 kts 162°
2026-03-26 14:46 14.63297 120.68031 6752 ft 263 kts 162°
2026-03-26 14:46 14.61566 120.68654 6517 ft 263 kts 154°
2026-03-26 14:46 14.59941 120.69522 6262 ft 263 kts 149°
2026-03-26 14:47 14.58380 120.70438 6073 ft 252 kts 149°
2026-03-26 14:47 14.56913 120.71304 5913 ft 234 kts 148°
2026-03-26 14:47 14.55532 120.72118 5695 ft 226 kts 149°
2026-03-26 14:47 14.54166 120.72923 5451 ft 227 kts 148°
2026-03-26 14:48 14.52785 120.73736 5202 ft 230 kts 148°
2026-03-26 14:48 14.51388 120.74557 5015 ft 233 kts 149°
2026-03-26 14:48 14.49982 120.75396 4967 ft 234 kts 149°
2026-03-26 14:48 14.48568 120.76234 4954 ft 235 kts 149°
2026-03-26 14:49 14.47155 120.77070 4732 ft 233 kts 149°
2026-03-26 14:49 14.45750 120.77900 4510 ft 232 kts 149°
2026-03-26 14:49 14.44358 120.78722 4311 ft 229 kts 148°
2026-03-26 14:49 14.42989 120.79532 4101 ft 226 kts 148°
2026-03-26 14:50 14.41652 120.80380 3812 ft 226 kts 141°
2026-03-26 14:50 14.40752 120.81662 3485 ft 223 kts 103°
2026-03-26 14:50 14.40805 120.83226 3247 ft 220 kts 73°
2026-03-26 14:50 14.41507 120.84617 3012 ft 218 kts 56°
2026-03-26 14:51 14.42279 120.85918 2950 ft 206 kts 65°
2026-03-26 14:51 14.42895 120.87190 2852 ft 189 kts 63°
2026-03-26 14:51 14.43526 120.88353 2595 ft 184 kts 62°
2026-03-26 14:51 14.44129 120.89467 2321 ft 176 kts 62°
2026-03-26 14:52 14.44705 120.90549 2081 ft 165 kts 62°
2026-03-26 14:52 14.45245 120.91550 1887 ft 160 kts 63°
2026-03-26 14:52 14.45790 120.92562 1673 ft 158 kts 64°
2026-03-26 14:52 14.46304 120.93519 1475 ft 149 kts 63°
2026-03-26 14:53 14.46788 120.94419 1312 ft 139 kts 64°
2026-03-26 14:53 14.47252 120.95284 1131 ft 138 kts 64°
2026-03-26 14:53 14.47725 120.96162 978 ft 138 kts 63°
2026-03-26 14:53 14.48184 120.97015 793 ft 137 kts 63°
2026-03-26 14:54 14.48648 120.97878 624 ft 138 kts 63°
2026-03-26 14:54 14.49111 120.98740 416 ft 138 kts 63°
2026-03-26 14:54 14.49566 120.99605 251 ft 137 kts 66°
2026-03-26 14:54 14.50039 121.00461 94 ft 135 kts 61°
2026-03-26 14:55 14.50435 121.01187 64 ft 91 kts 58°
2026-03-26 14:55 14.50706 121.01667 64 ft 65 kts 61°
2026-03-26 14:55 14.50901 121.02016 66 ft 50 kts 60°
2026-03-26 14:55 14.51094 121.02270 65 ft 31 kts 38°
2026-03-26 14:56 14.51165 121.02306 71 ft 8 kts 359°
2026-03-26 14:56 14.51204 121.02277 65 ft 4 kts 282°
2026-03-26 14:56 14.51192 121.02256 67 ft 5 kts 238°
2026-03-26 14:56 14.51187 121.02247 67 ft 0 kts 238°
2026-03-26 14:57 14.51187 121.02246 67 ft 1 kts 238°
2026-03-26 14:57 14.51173 121.02224 66 ft 6 kts 238°
2026-03-26 14:57 14.51142 121.02172 63 ft 11 kts 239°
2026-03-26 14:58 14.51139 121.02114 65 ft 5 kts 300°
2026-03-26 14:58 14.51145 121.02104 64 ft 0 kts 300°
2026-03-26 14:58 14.51149 121.02096 63 ft 0 kts 300°
2026-03-26 14:58 14.51151 121.02091 62 ft 1 kts 287°
2026-03-26 14:59 14.51153 121.02065 68 ft 0 kts 276°
2026-03-26 14:59 14.51154 121.02058 64 ft 2 kts 283°
2026-03-26 14:59 14.51155 121.02057 64 ft 0 kts 292°
2026-03-26 14:59 14.51160 121.02053 62 ft 2 kts 310°
2026-03-26 15:00 14.51177 121.02040 62 ft 0 kts 332°
2026-03-26 15:00 14.51186 121.02035 73 ft 1 kts 332°
2026-03-26 15:00 14.51192 121.02032 64 ft 0 kts 332°